Location: Robledo de Chavela
(40.5014°N, 4.2377°W)
Time: 10:01:14
(UTC+00:00)

Spot 2 Rocket - Visible Passes

Search period start: 24 July 2024 00:00
Search period end: 03 August 2024 00:00
Orbit: 754 x 769 km, 98.4° (Epoch: 23 July)

Date Brightness Start Highest point End Pass type
(mag) Time Alt. Az. Time Alt. Az. Time Alt. Az.
24 Jul 4.8 20:36:16 12° ESE 20:39:47 24° ENE 20:43:48 10° NNE visible
24 Jul 4.5 22:16:24 28° SW 22:18:27 40° W 22:23:15 10° NNW visible
25 Jul 3.4 21:38:13 33° SSE 21:40:36 87° ENE 21:45:43 10° NNW visible
26 Jul 4.2 21:00:03 20° SE 21:02:57 38° ENE 21:07:39 10° N visible
26 Jul 5.2 22:40:11 20° SW 22:41:57 24° W 22:46:04 10° NW visible
27 Jul 5.2 20:22:09 10° ESE 20:25:31 18° ENE 20:28:54 10° NNE visible
27 Jul 3.9 22:02:00 34° SSW 22:03:58 56° W 22:08:59 10° NNW visible
28 Jul 3.5 21:23:49 31° SE 21:26:12 64° ENE 21:31:15 10° N visible
28 Jul 5.8 23:03:57 13° WSW 23:05:32 14° W 23:08:17 10° WNW visible
29 Jul 4.6 20:45:38 16° ESE 20:48:38 29° ENE 20:52:58 10° N visible
29 Jul 4.8 22:25:46 27° SW 22:27:26 33° W 22:32:01 10° NNW visible
30 Jul 5.5 20:08:52 10° E 20:11:17 14° ENE 20:13:41 10° NNE visible
30 Jul 3.5 21:47:35 39° S 21:49:31 77° WSW 21:54:38 10° NNW visible
31 Jul 3.9 21:09:25 27° SE 21:11:50 47° ENE 21:16:40 10° N visible
31 Jul 5.4 22:49:33 18° WSW 22:50:57 20° W 22:54:39 10° NW visible
01 Aug 5.0 20:31:13 13° ESE 20:34:20 22° ENE 20:38:07 10° NNE visible
01 Aug 4.3 22:11:21 35° SW 22:12:55 45° W 22:17:48 10° NNW visible
02 Aug 3.4 21:33:10 39° SSE 21:35:05 78° ENE 21:40:10 10° N visible
02 Aug 6.0 23:13:19 11° WSW 23:14:33 11° W 23:16:13 10° WNW visible
